Hourly Data Report for July 04, 2012

BAGOTVILLE A
QUEBEC

48°20'00.000" N
71°00'00.000" W
159.10 m
7060400
71727
YBG

Download Data

Hourly Data (July 2012)
Hourly Data Report for July 4, 2012
TIME
LST
Temp Definition
°C
Dew Point Definition
°C
Rel Hum Definition
%
Precip. Amount Definition
mm

Wind Dir Definition
10's deg

Wind Spd Definition
km/h
Visibility Definition
km
Stn Press Definition
kPa
Hmdx Definition


Wind Chill Definition


Weather Definition


00:00 16.0 13.0 82   10 19 24.1 98.79     Cloudy
01:00 16.0 13.6 86   10 19 24.1 98.73     Cloudy
02:00 16.2 13.3 83   9 15 24.1 98.71     Cloudy
03:00 16.0 13.4 85   10 13 16.1 98.68     Rain Showers
04:00 15.5 14.0 91   10 9 24.1 98.70     Rain Showers
05:00 15.5 14.4 93   11 15 32.2 98.69     Rain Showers
06:00 15.2 14.1 93   9 13 24.1 98.67     Rain Showers
07:00 15.4 14.8 96   11 19 40.2 98.58     Mostly Cloudy
08:00 15.5 14.4 93   9 20 40.2 98.55     Cloudy
09:00 16.1 15.0 93   11 7 40.2 98.53     Rain Showers
10:00 17.2 15.3 89   11 15 40.2 98.52     Rain Showers
11:00 17.0 15.3 90   9 13 24.1 98.51     Rain Showers
12:00 17.6 15.6 88   11 20 40.2 98.45     Mostly Cloudy
13:00 20.5 16.9 80   8 17 40.2 98.42 26   Mostly Cloudy
14:00 19.8 16.8 83   10 19 40.2 98.40     Thunderstorms
15:00 19.4 17.0 86   17 9 32.2 98.47     Thunderstorms,Rain Showers
16:00 20.5 17.8 85   9 6 24.1 98.46 26   Rain Showers
17:00 20.7 17.4 81   9 9 40.2 98.50 26   Mostly Cloudy
18:00 20.7 17.9 84   7 4 40.2 98.52 27   Mostly Cloudy
19:00 20.0 18.5 91   33 6 40.2 98.57 26   Rain Showers
20:00 19.1 18.0 93   29 17 40.2 98.63     Mostly Cloudy
21:00 18.8 17.9 95   29 20 24.1 98.65     Mostly Cloudy
22:00 18.5 17.6 94   30 15 24.1 98.72     Cloudy
23:00 18.0 16.8 93   29 20 24.1 98.76     Cloudy

Notes on Data Quality.

Legend

  • E = Estimated
  • M = Missing
  • NA = Not Available*
  • [empty] = Indicates an unobserved value
Date modified: